Printer-friendly version

IAU Minor Planet Center

Minor Planet Center

MPEC 2004-Y62 : 2004 YJ32

The following Minor Planet Electronic Circular may be linked-to from your own Web pages, but must not otherwise be redistributed electronically.


Read MPEC 2004-Y61 Read MPEC 2004-Y63


M.P.E.C. 2004-Y62                                Issued 2004 Dec. 25, 21:47 UT

     The Minor Planet Electronic Circulars contain information on unusual
         minor planets and routine data on comets.  They are published
   on behalf of Commission 20 of the International Astronomical Union by the
          Minor Planet Center, Smithsonian Astrophysical Observatory,
                          Cambridge, MA 02138, U.S.A.

                  Supported in part by the Brinson Foundation
             Prepared using the Tamkin Foundation Computer Network

                              MPC@CFA.HARVARD.EDU
          URL http://cfa-www.harvard.edu/iau/mpc.html  ISSN 1523-6714

                                   2004 YJ32

Observations:
     K04Y32J  C2004 12 18.42219 09 13 30.61 +16 11 31.6          20.3 R EY062G96
     K04Y32J  C2004 12 18.43404 09 13 30.14 +16 11 34.6          20.1 R EY062G96
     K04Y32J  C2004 12 18.44591 09 13 29.75 +16 11 37.3          20.7 R EY062G96
     K04Y32J  C2004 12 18.45780 09 13 29.29 +16 11 41.0          19.1 R EY062G96
     K04Y32J* C2004 12 19.45442 09 12 57.52 +16 16 17.1          20.0 R EY062G96
     K04Y32J  C2004 12 19.46465 09 12 57.15 +16 16 19.2          20.6 R EY062G96
     K04Y32J  C2004 12 19.47483 09 12 56.77 +16 16 22.3          20.0 R EY062G96
     K04Y32J  C2004 12 19.48503 09 12 56.41 +16 16 25.6          20.1 R EY062G96
     K04Y32J  C2004 12 20.45685 09 12 23.55 +16 21 02.5          18.9 R EY062G96
     K04Y32J  C2004 12 20.46968 09 12 23.12 +16 21 05.8          18.9 R EY062G96
     K04Y32J  C2004 12 20.48252 09 12 22.67 +16 21 09.8          20.0 R EY062G96
     K04Y32J  C2004 12 20.49541 09 12 22.20 +16 21 13.5          20.3 R EY062G96
     K04Y32J  C2004 12 21.02397 09 12 03.83 +16 23 48.0                 EY062246
     K04Y32J  C2004 12 21.02716 09 12 03.70 +16 23 48.3                 EY062246
     K04Y32J  C2004 12 21.02933 09 12 03.68 +16 23 49.1                 EY062246
     K04Y32J  C2004 12 21.03146 09 12 03.57 +16 23 49.3                 EY062246
     K04Y32J  C2004 12 21.38771 09 11 50.69 +16 25 34.6                 EY062701
     K04Y32J  C2004 12 21.41602 09 11 49.60 +16 25 42.9                 EY062701
     K04Y32J 5C2004 12 21.44317 09 11 48.62 +16 25 50.9          20.2 R EY062673
     K04Y32J  C2004 12 21.44450 09 11 48.48 +16 25 51.6                 EY062701
     K04Y32J 5C2004 12 21.45035 09 11 48.32 +16 25 53.0                 EY062673
     K04Y32J  C2004 12 21.45163 09 11 48.21 +16 25 53.9          20.4 R EY062703
     K04Y32J  C2004 12 21.45494 09 11 48.14 +16 25 55.4          20.6 R EY062703
     K04Y32J 5C2004 12 21.45683 09 11 48.10 +16 25 55.1                 EY062673
     K04Y32J  C2004 12 21.45824 09 11 47.94 +16 25 56.2          20.0 R EY062703
     K04Y32J  C2004 12 21.46155 09 11 47.82 +16 25 57.2          19.9 R EY062703
     K04Y32J 5C2004 12 21.46308 09 11 47.83 +16 25 56.9                 EY062673
     K04Y32J  C2004 12 25.38308 09 09 12.16 +16 46 17.2          19.7 R EY062448
     K04Y32J  C2004 12 25.39398 09 09 11.70 +16 46 20.7          19.4 R EY062448
     K04Y32J  C2004 12 25.40488 09 09 11.19 +16 46 23.5          20.5 R EY062448

Observer details:
246 Klet Observatory-KLENOT.  Observer M. Tichy.  1.06-m KLENOT Telescope
    + CCD.
448 Desert Moon Observatory.  Observer B. L. Stevens.  0.3-m
    Schmidt-Cassegrain + CCD.
673 Table Mountain Observatory, Wrightwood.  Observer J. Young.  0.6-m
    reflector + CCD.
701 Junk Bond Observatory, Sierra Vista.  Observer D. Healy.  0.81-m f/4.8
    Ritchey-Chretien + CCD.
703 Catalina Sky Survey.  Observer E. J. Christensen.  Measurers E. C. Beshore,
    C. M. Casey, E. J. Christensen, G. J. Garradd, R. E. Hill, S. M. Larson,
    R. H. McNaught.  0.68-m Schmidt + CCD.
G96 Mt. Lemmon Survey.  Measurers E. C. Beshore, C. M. Casey,
    E. J. Christensen, G. J. Garradd, R. E. Hill, S. M. Larson, R. H. McNaught.
    1.5-m reflector + CCD.

Orbital elements:
2004 YJ32
Epoch 2004 Dec. 21.0 TT = JDT 2453360.5                 MPC
M  45.13003              (2000.0)            P               Q
n   0.19285725     Peri.  246.41723     +0.99073038     -0.08682879
a   2.9669626      Node   118.42070     +0.11784922     +0.93188016
e   0.5813935      Incl.    6.82210     -0.06756379     +0.35222172
P   5.11           H   16.1           G   0.15
From 30 observations 2004 Dec. 18-25.

Ephemeris:
2004 YJ32                a,e,i = 2.97, 0.58, 7                   q = 1.2420
Date    TT    R. A. (2000) Decl.     Delta      r     Elong.  Phase     V
2004 12 21    09 12.08   +16 23.7    1.818    2.599   133.9    15.8    20.3
2004 12 31    09 04.77   +17 18.3    1.790    2.663   146.0    11.9    20.2
2005 01 10    08 55.14   +18 21.0    1.786    2.726   158.7     7.5    20.1
2005 01 20    08 44.12   +19 25.7    1.811    2.788   171.6     3.0    19.9
2005 01 30    08 32.89   +20 25.9    1.866    2.849   175.1     1.7    19.9
2005 02 09    08 22.61   +21 17.1    1.952    2.909   162.6     5.8    20.3
2005 02 19    08 14.22   +21 56.6    2.067    2.967   150.4     9.5    20.7
2005 03 01    08 08.29   +22 24.2    2.207    3.025   138.9    12.4    21.0
2005 03 11    08 05.01   +22 40.8    2.367    3.081   128.1    14.7    21.2
2005 03 21    08 04.32   +22 47.8    2.543    3.136   118.0    16.3    21.5
2005 03 31    08 05.98   +22 46.6    2.730    3.190   108.5    17.3    21.7
2005 04 10    08 09.66   +22 38.2    2.924    3.243    99.5    17.7    21.9

Kyle E. Smalley              (C) Copyright 2004 MPC           M.P.E.C. 2004-Y62

Read MPEC 2004-Y61 Read MPEC 2004-Y63


Our Web policy. Index to the CBAT/MPC/ICQ pages.


Valid HTML 4.01!